Location: Blackwall
(51.5097°N, 0.0016°W)
Time: 23:16:59
(UTC+00:00)

Spot 4 - Pass Details

Date: 15 May 2026
Orbit: 698 x 714 km, 98.2° (Epoch: 11 June)

Event Time Altitude Azimuth Distance (km) Brightness Sun altitude
Exits shadow 23:36:15 37° 203° (SSW) 1,099 4.4 -19.3°
Maximum altitude 23:37:51 55° 259° (W) 856 4.2 -19.3°
Drops below altitude 10° 23:42:35 10° 338° (NNW) 2,196 7.4 -19.4°
Sets 23:44:55 0° 343° (NNW) 3,122 8.6 -19.4°
